Time,TemperatureF,DewpointF,PressureIn,WindDirection,WindDirectionDegrees,WindSpeedMPH,WindSpeedGustMPH,Humidity,HourlyPrecipIn,Conditions,Clouds,dailyrainin,SolarRadiationWatts/m^2,SoftwareType,DateUTC
2013-06-14 00:03:00,80.1,58.6,29.58,South,173,6.0,17.0,48,0.00,,,0.00,0.0,meteohub,2013-06-14 05:03:00,
2013-06-14 00:08:00,79.7,58.3,29.58,South,180,9.0,17.0,48,0.00,,,0.00,0.0,meteohub,2013-06-14 05:08:00,
2013-06-14 00:13:00,79.5,58.6,29.58,South,174,9.0,13.0,49,0.00,,,0.00,0.0,meteohub,2013-06-14 05:13:00,
2013-06-14 00:18:00,79.2,59.0,29.58,South,182,8.0,12.0,50,0.00,,,0.00,0.0,meteohub,2013-06-14 05:18:00,
2013-06-14 00:24:00,78.8,58.6,29.58,South,171,8.0,13.0,50,0.00,,,0.00,0.0,meteohub,2013-06-14 05:24:00,
2013-06-14 00:29:00,78.4,58.8,29.58,South,180,9.0,13.0,51,0.00,,,0.00,0.0,meteohub,2013-06-14 05:29:00,
2013-06-14 00:34:00,78.3,58.6,29.59,South,182,9.0,13.0,51,0.00,,,0.00,0.0,meteohub,2013-06-14 05:34:00,
2013-06-14 00:39:00,78.1,59.0,29.59,South,188,11.0,13.0,52,0.00,,,0.00,0.0,meteohub,2013-06-14 05:39:00,
2013-06-14 00:44:00,77.9,58.8,29.59,South,182,8.0,13.0,52,0.00,,,0.00,0.0,meteohub,2013-06-14 05:44:00,
2013-06-14 00:49:00,77.7,59.2,29.59,South,186,6.0,15.0,53,0.00,,,0.00,0.0,meteohub,2013-06-14 05:49:00,
2013-06-14 00:54:00,77.7,59.2,29.59,SSW,192,13.0,15.0,53,0.00,,,0.00,0.0,meteohub,2013-06-14 05:54:00,
2013-06-14 00:59:00,78.1,59.5,29.59,South,184,7.0,14.0,53,0.00,,,0.00,0.0,meteohub,2013-06-14 05:59:00,
2013-06-14 01:04:00,78.1,59.5,29.59,SSE,163,13.0,16.0,53,0.00,,,0.00,0.0,meteohub,2013-06-14 06:04:00,
2013-06-14 01:09:00,78.3,59.7,29.59,SSW,196,13.0,19.0,53,0.00,,,0.00,0.0,meteohub,2013-06-14 06:09:00,
2013-06-14 01:14:00,78.3,59.7,29.59,South,186,9.0,19.0,53,0.00,,,0.00,0.0,meteohub,2013-06-14 06:14:00,
2013-06-14 01:19:00,78.1,59.5,29.59,South,175,9.0,19.0,53,0.00,,,0.00,0.0,meteohub,2013-06-14 06:19:00,
2013-06-14 01:24:00,77.7,59.7,29.59,South,184,10.0,15.0,54,0.00,,,0.00,0.0,meteohub,2013-06-14 06:24:00,
2013-06-14 01:29:00,77.5,59.5,29.59,South,179,10.0,15.0,54,0.00,,,0.00,0.0,meteohub,2013-06-14 06:29:00,
2013-06-14 01:34:00,77.5,59.5,29.59,South,186,10.0,16.0,54,0.00,,,0.00,0.0,meteohub,2013-06-14 06:34:00,
2013-06-14 01:39:00,77.4,59.4,29.59,South,183,8.0,16.0,54,0.00,,,0.00,0.0,meteohub,2013-06-14 06:39:00,
2013-06-14 01:44:00,77.2,59.2,29.59,South,185,12.0,17.0,54,0.00,,,0.00,0.0,meteohub,2013-06-14 06:44:00,
2013-06-14 01:49:00,77.2,59.7,29.59,South,180,7.0,17.0,55,0.00,,,0.00,0.0,meteohub,2013-06-14 06:49:00,
2013-06-14 01:55:00,76.6,59.2,29.59,SSW,199,12.0,16.0,55,0.00,,,0.00,0.0,meteohub,2013-06-14 06:55:00,
2013-06-14 02:00:00,76.5,59.5,29.59,South,185,9.0,15.0,56,0.00,,,0.00,0.0,meteohub,2013-06-14 07:00:00,
2013-06-14 02:05:00,76.3,59.4,29.59,South,184,5.0,14.0,56,0.00,,,0.00,0.0,meteohub,2013-06-14 07:05:00,
2013-06-14 02:10:00,75.9,59.2,29.59,South,186,6.0,14.0,56,0.00,,,0.00,0.0,meteohub,2013-06-14 07:10:00,
2013-06-14 02:15:00,75.6,59.2,29.59,South,186,6.0,12.0,57,0.00,,,0.00,0.0,meteohub,2013-06-14 07:15:00,
2013-06-14 02:20:00,75.0,59.2,29.59,South,183,7.0,12.0,58,0.00,,,0.00,0.0,meteohub,2013-06-14 07:20:00,
2013-06-14 02:25:00,74.7,58.8,29.59,South,189,6.0,12.0,58,0.00,,,0.00,0.0,meteohub,2013-06-14 07:25:00,
2013-06-14 02:30:00,74.7,59.4,29.58,South,189,7.0,10.0,59,0.00,,,0.00,0.0,meteohub,2013-06-14 07:30:00,
2013-06-14 02:35:00,74.8,59.5,29.58,South,186,9.0,10.0,59,0.00,,,0.00,0.0,meteohub,2013-06-14 07:35:00,
2013-06-14 02:40:00,74.7,59.4,29.58,South,188,9.0,13.0,59,0.00,,,0.00,0.0,meteohub,2013-06-14 07:40:00,
2013-06-14 02:45:00,74.7,59.4,29.58,SSW,194,14.0,14.0,59,0.00,,,0.00,0.0,meteohub,2013-06-14 07:45:00,
2013-06-14 02:50:00,74.7,59.4,29.58,South,191,10.0,14.0,59,0.00,,,0.00,0.0,meteohub,2013-06-14 07:50:00,
2013-06-14 02:55:00,74.8,59.5,29.58,South,184,9.0,14.0,59,0.00,,,0.00,0.0,meteohub,2013-06-14 07:55:00,
2013-06-14 03:00:00,74.8,59.0,29.58,SSW,200,14.0,14.0,58,0.00,,,0.00,0.0,meteohub,2013-06-14 08:00:00,
2013-06-14 03:05:00,75.0,59.2,29.58,South,189,12.0,14.0,58,0.00,,,0.00,0.0,meteohub,2013-06-14 08:05:00,
2013-06-14 03:10:00,74.8,59.0,29.57,South,190,10.0,16.0,58,0.00,,,0.00,0.0,meteohub,2013-06-14 08:10:00,
2013-06-14 03:15:00,74.8,59.0,29.57,SSW,192,9.0,16.0,58,0.00,,,0.00,0.0,meteohub,2013-06-14 08:15:00,
2013-06-14 03:20:00,74.7,58.8,29.57,SSW,194,7.0,16.0,58,0.00,,,0.00,0.0,meteohub,2013-06-14 08:20:00,
2013-06-14 03:25:00,74.3,59.0,29.57,South,185,4.0,14.0,59,0.00,,,0.00,0.0,meteohub,2013-06-14 08:25:00,
2013-06-14 03:30:00,74.3,59.0,29.57,South,190,8.0,14.0,59,0.00,,,0.00,0.0,meteohub,2013-06-14 08:30:00,
2013-06-14 03:35:00,74.1,58.8,29.57,SSW,196,10.0,13.0,59,0.00,,,0.00,0.0,meteohub,2013-06-14 08:35:00,
2013-06-14 03:40:00,74.1,58.8,29.57,SSW,192,10.0,13.0,59,0.00,,,0.00,0.0,meteohub,2013-06-14 08:40:00,
2013-06-14 03:45:00,74.1,58.8,29.57,SSW,194,13.0,15.0,59,0.00,,,0.00,0.0,meteohub,2013-06-14 08:45:00,
2013-06-14 03:50:00,74.1,58.8,29.57,SSW,195,11.0,15.0,59,0.00,,,0.00,0.0,meteohub,2013-06-14 08:50:00,
2013-06-14 03:55:00,73.9,59.2,29.57,South,188,8.0,15.0,60,0.00,,,0.00,0.0,meteohub,2013-06-14 08:55:00,
2013-06-14 04:00:00,73.6,58.8,29.57,SSW,194,9.0,15.0,60,0.00,,,0.00,0.0,meteohub,2013-06-14 09:00:00,
2013-06-14 04:05:00,73.2,59.0,29.57,SSW,200,8.0,15.0,61,0.00,,,0.00,0.0,meteohub,2013-06-14 09:05:00,
2013-06-14 04:10:00,73.0,58.8,29.57,South,190,6.0,15.0,61,0.00,,,0.00,0.0,meteohub,2013-06-14 09:10:00,
2013-06-14 04:15:00,73.0,59.2,29.57,South,187,7.0,13.0,62,0.00,,,0.00,0.0,meteohub,2013-06-14 09:15:00,
2013-06-14 04:20:00,72.9,59.0,29.56,South,171,5.0,13.0,62,0.00,,,0.00,0.0,meteohub,2013-06-14 09:20:00,
2013-06-14 04:25:00,72.9,59.0,29.56,South,182,7.0,12.0,62,0.00,,,0.00,0.0,meteohub,2013-06-14 09:25:00,
2013-06-14 04:30:00,72.7,59.4,29.57,SSW,197,8.0,13.0,63,0.00,,,0.00,0.0,meteohub,2013-06-14 09:30:00,
2013-06-14 04:35:00,72.3,58.6,29.57,SSW,200,7.0,13.0,62,0.00,,,0.00,0.0,meteohub,2013-06-14 09:35:00,
2013-06-14 04:40:00,72.1,58.8,29.57,SSW,200,9.0,13.0,63,0.00,,,0.00,0.0,meteohub,2013-06-14 09:40:00,
2013-06-14 04:45:00,71.8,59.0,29.57,SSW,195,9.0,13.0,64,0.00,,,0.00,0.0,meteohub,2013-06-14 09:45:00,
2013-06-14 04:50:00,71.4,58.6,29.57,SSW,198,9.0,13.0,64,0.00,,,0.00,0.0,meteohub,2013-06-14 09:50:00,
2013-06-14 04:55:00,71.2,58.8,29.57,SSW,203,10.0,12.0,65,0.00,,,0.00,0.0,meteohub,2013-06-14 09:55:00,
2013-06-14 05:00:00,71.1,58.6,29.57,SSW,196,10.0,13.0,65,0.00,,,0.00,0.0,meteohub,2013-06-14 10:00:00,
2013-06-14 05:05:00,71.1,58.6,29.57,SSW,196,13.0,14.0,65,0.00,,,0.00,0.0,meteohub,2013-06-14 10:05:00,
2013-06-14 05:10:00,71.1,59.2,29.57,South,190,10.0,14.0,66,0.00,,,0.00,0.0,meteohub,2013-06-14 10:10:00,
2013-06-14 05:15:00,71.1,59.2,29.57,SSW,199,8.0,14.0,66,0.00,,,0.00,0.0,meteohub,2013-06-14 10:15:00,
2013-06-14 05:20:00,71.1,59.2,29.57,SSW,196,12.0,16.0,66,0.00,,,0.00,0.0,meteohub,2013-06-14 10:20:00,
2013-06-14 05:25:00,70.9,59.0,29.57,SSW,198,10.0,16.0,66,0.00,,,0.00,0.0,meteohub,2013-06-14 10:25:00,
2013-06-14 05:30:00,70.5,58.6,29.56,SSW,192,6.0,16.0,66,0.00,,,0.00,0.0,meteohub,2013-06-14 10:30:00,
2013-06-14 05:35:00,70.3,58.8,29.57,SW,214,10.0,14.0,67,0.00,,,0.00,0.0,meteohub,2013-06-14 10:35:00,
2013-06-14 05:40:00,70.3,58.8,29.57,SSW,194,10.0,14.0,67,0.00,,,0.00,0.0,meteohub,2013-06-14 10:40:00,
2013-06-14 05:45:00,70.0,58.5,29.56,South,190,11.0,14.0,67,0.00,,,0.00,0.0,meteohub,2013-06-14 10:45:00,
2013-06-14 05:50:00,69.8,58.8,29.57,SSW,196,10.0,14.0,68,0.00,,,0.00,0.0,meteohub,2013-06-14 10:50:00,
2013-06-14 05:55:00,69.8,58.8,29.57,SSW,197,11.0,15.0,68,0.00,,,0.00,0.0,meteohub,2013-06-14 10:55:00,
2013-06-14 06:00:00,70.0,59.0,29.57,SSW,193,11.0,15.0,68,0.00,,,0.00,0.0,meteohub,2013-06-14 11:00:00,
2013-06-14 06:05:00,70.0,59.0,29.56,SSW,198,12.0,16.0,68,0.00,,,0.00,0.0,meteohub,2013-06-14 11:05:00,
2013-06-14 06:10:00,70.0,59.0,29.57,SSW,194,12.0,16.0,68,0.00,,,0.00,0.0,meteohub,2013-06-14 11:10:00,
2013-06-14 06:15:00,70.0,59.0,29.57,SSW,206,8.0,17.0,68,0.00,,,0.00,0.0,meteohub,2013-06-14 11:15:00,
2013-06-14 06:21:00,69.6,58.6,29.57,SSW,192,14.0,17.0,68,0.00,,,0.00,0.0,meteohub,2013-06-14 11:21:00,
2013-06-14 06:26:00,69.6,59.0,29.57,SSW,205,10.0,17.0,69,0.00,,,0.00,0.0,meteohub,2013-06-14 11:26:00,
2013-06-14 06:31:00,69.4,58.8,29.57,SSW,207,9.0,17.0,69,0.00,,,0.00,0.0,meteohub,2013-06-14 11:31:00,
2013-06-14 06:36:00,69.3,59.0,29.57,SW,215,8.0,16.0,70,0.00,,,0.00,7.0,meteohub,2013-06-14 11:36:00,
2013-06-14 06:41:00,68.7,58.5,29.57,SW,217,10.0,15.0,70,0.00,,,0.00,11.0,meteohub,2013-06-14 11:41:00,
2013-06-14 06:46:00,68.4,58.6,29.58,SW,234,10.0,13.0,71,0.00,,,0.00,14.0,meteohub,2013-06-14 11:46:00,
2013-06-14 06:51:00,68.2,58.8,29.58,WSW,257,11.0,12.0,72,0.00,,,0.00,18.0,meteohub,2013-06-14 11:51:00,
2013-06-14 06:56:00,67.5,58.5,29.58,WSW,241,9.0,12.0,73,0.00,,,0.00,21.0,meteohub,2013-06-14 11:56:00,
2013-06-14 07:01:00,67.5,58.8,29.58,WSW,240,8.0,11.0,74,0.00,,,0.00,32.0,meteohub,2013-06-14 12:01:00,
2013-06-14 07:06:00,67.5,58.8,29.58,SW,222,7.0,11.0,74,0.00,,,0.00,35.0,meteohub,2013-06-14 12:06:00,
2013-06-14 07:11:00,67.5,58.8,29.58,SW,230,5.0,10.0,74,0.00,,,0.00,33.0,meteohub,2013-06-14 12:11:00,
2013-06-14 07:16:00,67.5,58.8,29.58,SW,219,6.0,10.0,74,0.00,,,0.00,37.0,meteohub,2013-06-14 12:16:00,
2013-06-14 07:21:00,67.6,59.0,29.59,SW,229,5.0,10.0,74,0.00,,,0.00,63.0,meteohub,2013-06-14 12:21:00,
2013-06-14 07:26:00,68.2,59.5,29.58,SSW,204,7.0,10.0,74,0.00,,,0.00,81.0,meteohub,2013-06-14 12:26:00,
2013-06-14 07:31:00,68.5,59.5,29.58,SSW,213,8.0,11.0,73,0.00,,,0.00,84.0,meteohub,2013-06-14 12:31:00,
2013-06-14 07:36:00,69.1,59.7,29.59,SW,218,10.0,11.0,72,0.00,,,0.00,62.0,meteohub,2013-06-14 12:36:00,
2013-06-14 07:41:00,69.4,60.1,29.59,SSW,212,9.0,12.0,72,0.00,,,0.00,42.0,meteohub,2013-06-14 12:41:00,
2013-06-14 07:46:00,70.0,60.1,29.59,SW,221,11.0,14.0,71,0.00,,,0.00,40.0,meteohub,2013-06-14 12:46:00,
2013-06-14 07:51:00,70.7,60.4,29.59,SSW,209,12.0,14.0,70,0.00,,,0.00,40.0,meteohub,2013-06-14 12:51:00,
2013-06-14 07:56:00,71.6,60.4,29.59,SSW,208,10.0,16.0,68,0.00,,,0.00,39.0,meteohub,2013-06-14 12:56:00,
2013-06-14 08:01:00,72.5,61.0,29.59,SSW,213,13.0,16.0,67,0.00,,,0.00,42.0,meteohub,2013-06-14 13:01:00,
2013-06-14 08:06:00,73.2,61.2,29.59,SW,225,9.0,16.0,66,0.00,,,0.00,56.0,meteohub,2013-06-14 13:06:00,
2013-06-14 08:11:00,73.8,61.3,29.59,SW,226,12.0,16.0,65,0.00,,,0.00,174.0,meteohub,2013-06-14 13:11:00,
2013-06-14 08:16:00,74.7,61.2,29.59,SW,221,13.0,16.0,63,0.00,,,0.00,262.0,meteohub,2013-06-14 13:16:00,
2013-06-14 08:21:00,75.4,61.0,29.59,SW,216,16.0,17.0,61,0.00,,,0.00,236.0,meteohub,2013-06-14 13:21:00,
2013-06-14 08:26:00,75.7,61.3,29.59,SSW,205,14.0,18.0,61,0.00,,,0.00,309.0,meteohub,2013-06-14 13:26:00,
2013-06-14 08:32:00,76.3,61.3,29.58,SSW,207,14.0,18.0,60,0.00,,,0.00,334.0,meteohub,2013-06-14 13:32:00,
2013-06-14 08:37:00,76.5,61.0,29.59,SW,217,14.0,18.0,59,0.00,,,0.00,350.0,meteohub,2013-06-14 13:37:00,
2013-06-14 08:42:00,76.8,61.3,29.59,SW,217,14.0,18.0,59,0.00,,,0.00,364.0,meteohub,2013-06-14 13:42:00,
2013-06-14 08:47:00,77.4,61.3,29.59,SW,233,14.0,19.0,58,0.00,,,0.00,360.0,meteohub,2013-06-14 13:47:00,
2013-06-14 08:52:00,77.5,60.6,29.59,SW,225,13.0,19.0,56,0.00,,,0.00,406.0,meteohub,2013-06-14 13:52:00,
2013-06-14 08:57:00,78.1,61.2,29.59,SW,234,12.0,19.0,56,0.00,,,0.00,425.0,meteohub,2013-06-14 13:57:00,
2013-06-14 09:02:00,78.6,61.2,29.59,SW,222,14.0,19.0,55,0.00,,,0.00,425.0,meteohub,2013-06-14 14:02:00,
2013-06-14 09:07:00,79.2,61.2,29.59,SW,236,18.0,18.0,54,0.00,,,0.00,427.0,meteohub,2013-06-14 14:07:00,
2013-06-14 09:12:00,79.3,60.8,29.59,SW,234,15.0,20.0,53,0.00,,,0.00,438.0,meteohub,2013-06-14 14:12:00,
2013-06-14 09:17:00,79.5,60.8,29.60,WSW,240,12.0,20.0,53,0.00,,,0.00,466.0,meteohub,2013-06-14 14:17:00,
2013-06-14 09:22:00,80.1,60.3,29.60,SW,230,13.0,20.0,51,0.00,,,0.00,494.0,meteohub,2013-06-14 14:22:00,
2013-06-14 09:27:00,80.6,60.3,29.60,SW,227,14.0,21.0,50,0.00,,,0.00,517.0,meteohub,2013-06-14 14:27:00,
2013-06-14 09:32:00,81.0,59.4,29.60,SSW,209,17.0,21.0,48,0.00,,,0.00,538.0,meteohub,2013-06-14 14:32:00,
2013-06-14 09:37:00,81.3,59.7,29.60,SSW,212,17.0,19.0,48,0.00,,,0.00,541.0,meteohub,2013-06-14 14:37:00,
2013-06-14 09:42:00,81.9,59.7,29.60,SSW,204,15.0,20.0,47,0.00,,,0.00,566.0,meteohub,2013-06-14 14:42:00,
2013-06-14 09:47:00,82.4,59.5,29.60,SSW,194,18.0,20.0,46,0.00,,,0.00,589.0,meteohub,2013-06-14 14:47:00,
2013-06-14 09:52:00,83.1,59.5,29.60,SSW,204,16.0,20.0,45,0.00,,,0.00,603.0,meteohub,2013-06-14 14:52:00,
2013-06-14 09:57:00,83.3,59.2,29.60,SSW,212,14.0,20.0,44,0.00,,,0.00,631.0,meteohub,2013-06-14 14:57:00,
2013-06-14 10:02:00,83.5,59.4,29.60,SSW,209,20.0,23.0,44,0.00,,,0.00,621.0,meteohub,2013-06-14 15:02:00,
2013-06-14 10:07:00,83.8,59.5,29.60,SSW,198,10.0,25.0,44,0.00,,,0.00,661.0,meteohub,2013-06-14 15:07:00,
2013-06-14 10:12:00,84.0,59.2,29.60,SSW,192,21.0,25.0,43,0.00,,,0.00,668.0,meteohub,2013-06-14 15:12:00,
2013-06-14 10:17:00,84.4,60.1,29.59,SSW,196,20.0,23.0,44,0.00,,,0.00,689.0,meteohub,2013-06-14 15:17:00,
2013-06-14 10:22:00,84.7,59.7,29.59,SSW,200,15.0,24.0,43,0.00,,,0.00,663.0,meteohub,2013-06-14 15:22:00,
2013-06-14 10:27:00,85.3,59.5,29.59,SSW,198,9.0,24.0,42,0.00,,,0.00,705.0,meteohub,2013-06-14 15:27:00,
2013-06-14 10:32:00,85.6,59.2,29.59,SSW,202,17.0,24.0,41,0.00,,,0.00,670.0,meteohub,2013-06-14 15:32:00,
2013-06-14 10:37:00,85.8,59.4,29.59,South,172,12.0,25.0,41,0.00,,,0.00,714.0,meteohub,2013-06-14 15:37:00,
2013-06-14 10:42:00,86.4,58.5,29.59,South,173,18.0,25.0,39,0.00,,,0.00,775.0,meteohub,2013-06-14 15:42:00,
2013-06-14 10:47:00,86.7,59.5,29.59,South,191,26.0,31.0,40,0.00,,,0.00,758.0,meteohub,2013-06-14 15:47:00,
2013-06-14 10:52:00,87.1,59.2,29.59,SSW,198,26.0,31.0,39,0.00,,,0.00,719.0,meteohub,2013-06-14 15:52:00,
2013-06-14 10:57:00,87.1,58.5,29.59,SSW,196,13.0,31.0,38,0.00,,,0.00,812.0,meteohub,2013-06-14 15:57:00,
2013-06-14 11:02:00,87.1,58.5,29.59,SSW,205,18.0,29.0,38,0.00,,,0.00,795.0,meteohub,2013-06-14 16:02:00,
2013-06-14 11:07:00,87.4,57.2,29.58,SSW,202,21.0,29.0,36,0.00,,,0.00,793.0,meteohub,2013-06-14 16:07:00,
2013-06-14 11:12:00,87.4,57.9,29.59,South,191,16.0,27.0,37,0.00,,,0.00,773.0,meteohub,2013-06-14 16:12:00,
2013-06-14 11:17:00,87.4,56.5,29.59,South,191,22.0,32.0,35,0.00,,,0.00,819.0,meteohub,2013-06-14 16:17:00,
2013-06-14 11:22:00,87.6,57.4,29.58,South,177,7.0,32.0,36,0.00,,,0.00,860.0,meteohub,2013-06-14 16:22:00,
2013-06-14 11:27:00,88.2,54.5,29.59,SSW,201,23.0,27.0,32,0.00,,,0.00,872.0,meteohub,2013-06-14 16:27:00,
2013-06-14 11:32:00,88.2,55.4,29.59,South,186,18.0,27.0,33,0.00,,,0.00,773.0,meteohub,2013-06-14 16:32:00,
2013-06-14 11:37:00,88.3,53.8,29.58,South,182,14.0,27.0,31,0.00,,,0.00,856.0,meteohub,2013-06-14 16:37:00,
2013-06-14 11:42:00,88.9,53.4,29.58,South,191,17.0,29.0,30,0.00,,,0.00,856.0,meteohub,2013-06-14 16:42:00,
2013-06-14 11:47:00,89.2,53.8,29.58,South,171,12.0,29.0,30,0.00,,,0.00,773.0,meteohub,2013-06-14 16:47:00,
2013-06-14 11:52:00,89.6,52.2,29.58,SSW,200,7.0,29.0,28,0.00,,,0.00,898.0,meteohub,2013-06-14 16:52:00,
2013-06-14 11:57:00,89.8,54.1,29.57,South,184,10.0,29.0,30,0.00,,,0.00,907.0,meteohub,2013-06-14 16:57:00,
2013-06-14 12:02:00,89.8,51.3,29.57,SSW,207,25.0,29.0,27,0.00,,,0.00,946.0,meteohub,2013-06-14 17:02:00,
2013-06-14 12:07:00,90.0,53.4,29.57,South,188,9.0,35.0,29,0.00,,,0.00,930.0,meteohub,2013-06-14 17:07:00,
2013-06-14 12:12:00,90.7,54.1,29.57,South,169,15.0,35.0,29,0.00,,,0.00,904.0,meteohub,2013-06-14 17:12:00,
2013-06-14 12:17:00,90.3,53.8,29.57,SSW,199,17.0,35.0,29,0.00,,,0.00,954.0,meteohub,2013-06-14 17:17:00,
2013-06-14 12:22:00,90.9,53.2,29.57,SSW,211,16.0,33.0,28,0.00,,,0.00,809.0,meteohub,2013-06-14 17:22:00,
2013-06-14 12:27:00,90.5,52.9,29.57,South,186,16.0,33.0,28,0.00,,,0.00,963.0,meteohub,2013-06-14 17:27:00,
2013-06-14 12:32:00,90.1,53.6,29.57,South,178,17.0,33.0,29,0.00,,,0.00,972.0,meteohub,2013-06-14 17:32:00,
2013-06-14 12:37:00,90.3,52.9,29.57,South,189,18.0,33.0,28,0.00,,,0.00,891.0,meteohub,2013-06-14 17:37:00,
2013-06-14 12:42:00,90.3,53.8,29.57,South,175,14.0,33.0,29,0.00,,,0.00,970.0,meteohub,2013-06-14 17:42:00,
2013-06-14 12:47:00,90.9,55.2,29.56,South,179,15.0,36.0,30,0.00,,,0.00,977.0,meteohub,2013-06-14 17:47:00,
2013-06-14 12:52:00,91.0,54.3,29.56,South,180,15.0,36.0,29,0.00,,,0.00,881.0,meteohub,2013-06-14 17:52:00,
2013-06-14 12:57:00,90.7,53.1,29.56,SSW,192,11.0,31.0,28,0.00,,,0.00,1095.0,meteohub,2013-06-14 17:57:00,
2013-06-14 13:02:00,90.7,54.1,29.56,SSW,198,13.0,36.0,29,0.00,,,0.00,1002.0,meteohub,2013-06-14 18:02:00,
2013-06-14 13:07:00,90.9,54.1,29.56,South,174,20.0,38.0,29,0.00,,,0.00,1088.0,meteohub,2013-06-14 18:07:00,
2013-06-14 13:12:00,91.4,54.7,29.56,South,171,17.0,38.0,29,0.00,,,0.00,1021.0,meteohub,2013-06-14 18:12:00,
2013-06-14 13:17:00,91.9,53.2,29.56,South,191,23.0,38.0,27,0.00,,,0.00,1109.0,meteohub,2013-06-14 18:17:00,
2013-06-14 13:22:00,91.6,53.8,29.55,SSW,209,20.0,33.0,28,0.00,,,0.00,1042.0,meteohub,2013-06-14 18:22:00,
2013-06-14 13:27:00,91.2,52.5,29.55,South,185,21.0,33.0,27,0.00,,,0.00,1109.0,meteohub,2013-06-14 18:27:00,
2013-06-14 13:32:00,91.2,52.5,29.55,SSW,205,11.0,33.0,27,0.00,,,0.00,1056.0,meteohub,2013-06-14 18:32:00,
2013-06-14 13:37:00,91.8,50.9,29.55,South,183,21.0,31.0,25,0.00,,,0.00,1039.0,meteohub,2013-06-14 18:37:00,
2013-06-14 13:42:00,92.5,53.6,29.55,South,181,12.0,31.0,27,0.00,,,0.00,1035.0,meteohub,2013-06-14 18:42:00,
2013-06-14 13:47:00,92.8,54.0,29.55,SSE,168,15.0,34.0,27,0.00,,,0.00,1025.0,meteohub,2013-06-14 18:47:00,
2013-06-14 13:52:00,91.6,54.9,29.55,SSE,159,15.0,34.0,29,0.00,,,0.00,1032.0,meteohub,2013-06-14 18:52:00,
2013-06-14 13:58:00,91.8,54.0,29.55,SSW,192,21.0,34.0,28,0.00,,,0.00,1013.0,meteohub,2013-06-14 18:58:00,
2013-06-14 14:03:00,91.9,55.2,29.55,South,178,22.0,34.0,29,0.00,,,0.00,1021.0,meteohub,2013-06-14 19:03:00,
2013-06-14 14:08:00,91.9,56.1,29.55,SSW,193,29.0,36.0,30,0.00,,,0.00,1002.0,meteohub,2013-06-14 19:08:00,
2013-06-14 14:13:00,91.9,55.2,29.54,South,171,13.0,36.0,29,0.00,,,0.00,1021.0,meteohub,2013-06-14 19:13:00,
2013-06-14 14:18:00,92.3,55.4,29.55,South,173,22.0,36.0,29,0.00,,,0.00,1020.0,meteohub,2013-06-14 19:18:00,
2013-06-14 14:23:00,91.9,56.1,29.54,South,181,22.0,36.0,30,0.00,,,0.00,169.0,meteohub,2013-06-14 19:23:00,
2013-06-14 14:28:00,91.9,55.2,29.55,South,180,13.0,32.0,29,0.00,,,0.00,956.0,meteohub,2013-06-14 19:28:00,
2013-06-14 14:33:00,92.8,55.9,29.54,South,169,12.0,33.0,29,0.00,,,0.00,997.0,meteohub,2013-06-14 19:33:00,
2013-06-14 14:38:00,92.3,56.3,29.54,South,178,17.0,33.0,30,0.00,,,0.00,933.0,meteohub,2013-06-14 19:38:00,
2013-06-14 14:43:00,92.5,54.7,29.54,SSW,198,22.0,33.0,28,0.00,,,0.00,997.0,meteohub,2013-06-14 19:43:00,
2013-06-14 14:48:00,92.1,54.3,29.53,SSW,198,14.0,34.0,28,0.00,,,0.00,1071.0,meteohub,2013-06-14 19:48:00,
2013-06-14 14:53:00,92.8,54.0,29.53,South,169,20.0,34.0,27,0.00,,,0.00,983.0,meteohub,2013-06-14 19:53:00,
2013-06-14 14:58:00,91.9,52.2,29.53,SSW,202,22.0,34.0,26,0.00,,,0.00,960.0,meteohub,2013-06-14 19:58:00,
2013-06-14 15:03:00,92.5,53.6,29.53,South,186,20.0,34.0,27,0.00,,,0.00,969.0,meteohub,2013-06-14 20:03:00,
2013-06-14 15:08:00,92.5,52.5,29.52,SSW,197,20.0,34.0,26,0.00,,,0.00,974.0,meteohub,2013-06-14 20:08:00,
2013-06-14 15:13:00,92.8,50.7,29.52,SSW,198,27.0,33.0,24,0.00,,,0.00,939.0,meteohub,2013-06-14 20:13:00,
2013-06-14 15:19:00,93.4,50.0,29.52,SSW,205,23.0,36.0,23,0.00,,,0.00,940.0,meteohub,2013-06-14 20:19:00,
2013-06-14 15:24:00,93.6,48.9,29.52,SSW,197,26.0,36.0,22,0.00,,,0.00,942.0,meteohub,2013-06-14 20:24:00,
2013-06-14 15:29:00,93.7,47.8,29.52,SSE,165,14.0,36.0,21,0.00,,,0.00,946.0,meteohub,2013-06-14 20:29:00,
2013-06-14 15:34:00,94.3,49.6,29.52,SSW,196,13.0,36.0,22,0.00,,,0.00,954.0,meteohub,2013-06-14 20:34:00,
2013-06-14 15:39:00,93.7,47.8,29.51,SSW,192,18.0,36.0,21,0.00,,,0.00,962.0,meteohub,2013-06-14 20:39:00,
2013-06-14 15:44:00,93.6,46.4,29.51,South,178,22.0,35.0,20,0.00,,,0.00,991.0,meteohub,2013-06-14 20:44:00,
2013-06-14 15:49:00,93.9,45.3,29.51,South,184,23.0,36.0,19,0.00,,,0.00,833.0,meteohub,2013-06-14 20:49:00,
2013-06-14 15:54:00,93.9,44.1,29.51,SSW,204,26.0,36.0,18,0.00,,,0.00,838.0,meteohub,2013-06-14 20:54:00,
2013-06-14 15:59:00,93.7,46.6,29.50,South,189,19.0,36.0,20,0.00,,,0.00,835.0,meteohub,2013-06-14 20:59:00,
2013-06-14 16:04:00,92.8,44.6,29.50,SSW,197,17.0,35.0,19,0.00,,,0.00,397.0,meteohub,2013-06-14 21:04:00,
2013-06-14 16:09:00,93.0,44.6,29.49,South,180,15.0,35.0,19,0.00,,,0.00,724.0,meteohub,2013-06-14 21:09:00,
2013-06-14 16:14:00,93.4,42.1,29.49,South,182,14.0,35.0,17,0.00,,,0.00,726.0,meteohub,2013-06-14 21:14:00,
2013-06-14 16:19:00,94.3,42.8,29.49,South,178,10.0,34.0,17,0.00,,,0.00,879.0,meteohub,2013-06-14 21:19:00,
2013-06-14 16:24:00,94.3,39.6,29.48,SSE,160,16.0,34.0,15,0.00,,,0.00,932.0,meteohub,2013-06-14 21:24:00,
2013-06-14 16:29:00,94.5,41.4,29.48,South,173,16.0,26.0,16,0.00,,,0.00,749.0,meteohub,2013-06-14 21:29:00,
2013-06-14 16:34:00,94.5,41.4,29.48,SSE,167,15.0,35.0,16,0.00,,,0.00,640.0,meteohub,2013-06-14 21:34:00,
2013-06-14 16:39:00,94.6,41.5,29.48,South,169,24.0,35.0,16,0.00,,,0.00,842.0,meteohub,2013-06-14 21:39:00,
2013-06-14 16:44:00,94.3,41.2,29.47,South,169,15.0,42.0,16,0.00,,,0.00,816.0,meteohub,2013-06-14 21:44:00,
2013-06-14 16:49:00,92.7,52.7,29.47,SSE,153,26.0,42.0,26,0.00,,,0.00,784.0,meteohub,2013-06-14 21:49:00,
2013-06-14 16:54:00,91.6,53.8,29.47,South,169,25.0,33.0,28,0.00,,,0.00,759.0,meteohub,2013-06-14 21:54:00,
2013-06-14 16:59:00,91.2,53.6,29.47,SSE,166,22.0,38.0,28,0.00,,,0.00,738.0,meteohub,2013-06-14 21:59:00,
2013-06-14 17:05:00,91.2,53.6,29.48,SSE,155,24.0,38.0,28,0.00,,,0.00,722.0,meteohub,2013-06-14 22:05:00,
2013-06-14 17:10:00,91.8,53.1,29.48,South,178,18.0,38.0,27,0.00,,,0.00,710.0,meteohub,2013-06-14 22:10:00,
2013-06-14 17:15:00,91.0,52.3,29.47,SSE,153,21.0,36.0,27,0.00,,,0.00,696.0,meteohub,2013-06-14 22:15:00,
2013-06-14 17:20:00,90.5,52.0,29.47,SSE,158,25.0,38.0,27,0.00,,,0.00,686.0,meteohub,2013-06-14 22:20:00,
2013-06-14 17:25:00,90.7,52.2,29.47,SSE,154,25.0,38.0,27,0.00,,,0.00,664.0,meteohub,2013-06-14 22:25:00,
2013-06-14 17:30:00,90.3,53.8,29.47,SSE,150,18.0,38.0,29,0.00,,,0.00,647.0,meteohub,2013-06-14 22:30:00,
2013-06-14 17:35:00,90.3,53.8,29.47,South,175,25.0,37.0,29,0.00,,,0.00,629.0,meteohub,2013-06-14 22:35:00,
2013-06-14 17:40:00,90.1,52.7,29.47,SSE,151,25.0,37.0,28,0.00,,,0.00,613.0,meteohub,2013-06-14 22:40:00,
2013-06-14 17:45:00,90.3,50.7,29.48,SSE,163,25.0,36.0,26,0.00,,,0.00,610.0,meteohub,2013-06-14 22:45:00,
2013-06-14 17:50:00,90.0,48.4,29.47,SSE,153,21.0,36.0,24,0.00,,,0.00,594.0,meteohub,2013-06-14 22:50:00,
2013-06-14 17:55:00,90.3,49.6,29.48,SSE,163,25.0,36.0,25,0.00,,,0.00,573.0,meteohub,2013-06-14 22:55:00,
2013-06-14 18:00:00,90.5,49.8,29.49,South,173,18.0,34.0,25,0.00,,,0.00,557.0,meteohub,2013-06-14 23:00:00,
2013-06-14 18:05:00,90.0,47.1,29.49,SSE,167,19.0,34.0,23,0.00,,,0.00,541.0,meteohub,2013-06-14 23:05:00,
2013-06-14 18:11:00,89.6,45.7,29.49,South,177,18.0,34.0,22,0.00,,,0.00,529.0,meteohub,2013-06-14 23:11:00,
2013-06-14 18:16:00,89.8,44.6,29.49,South,179,23.0,32.0,21,0.00,,,0.00,519.0,meteohub,2013-06-14 23:16:00,
2013-06-14 18:21:00,89.8,45.9,29.50,South,171,14.0,33.0,22,0.00,,,0.00,485.0,meteohub,2013-06-14 23:21:00,
2013-06-14 18:26:00,89.4,45.5,29.51,SSE,165,22.0,33.0,22,0.00,,,0.00,497.0,meteohub,2013-06-14 23:26:00,
2013-06-14 18:31:00,89.2,45.5,29.52,SSE,166,9.0,34.0,22,0.00,,,0.00,480.0,meteohub,2013-06-14 23:31:00,
2013-06-14 18:36:00,89.2,46.6,29.52,SSE,168,23.0,34.0,23,0.00,,,0.00,466.0,meteohub,2013-06-14 23:36:00,
2013-06-14 18:41:00,88.9,47.5,29.52,SSE,167,18.0,34.0,24,0.00,,,0.00,448.0,meteohub,2013-06-14 23:41:00,
2013-06-14 18:46:00,89.2,47.7,29.52,SSE,167,12.0,31.0,24,0.00,,,0.00,439.0,meteohub,2013-06-14 23:46:00,
2013-06-14 18:51:00,88.9,49.6,29.52,SSE,155,19.0,31.0,26,0.00,,,0.00,330.0,meteohub,2013-06-14 23:51:00,
2013-06-14 18:56:00,88.5,49.3,29.52,SSE,161,17.0,26.0,26,0.00,,,0.00,227.0,meteohub,2013-06-14 23:56:00,
2013-06-14 19:01:00,87.3,48.2,29.52,South,183,16.0,29.0,26,0.00,,,0.00,76.0,meteohub,2013-06-15 00:01:00,
2013-06-14 19:06:00,86.5,45.5,29.53,South,173,17.0,30.0,24,0.00,,,0.00,69.0,meteohub,2013-06-15 00:06:00,
2013-06-14 19:11:00,86.4,43.0,29.53,South,178,14.0,30.0,22,0.00,,,0.00,81.0,meteohub,2013-06-15 00:11:00,
2013-06-14 19:16:00,86.0,43.9,29.54,South,170,11.0,30.0,23,0.00,,,0.00,83.0,meteohub,2013-06-15 00:16:00,
2013-06-14 19:22:00,85.6,43.5,29.54,South,188,14.0,22.0,23,0.00,,,0.00,86.0,meteohub,2013-06-15 00:22:00,
2013-06-14 19:27:00,85.5,45.7,29.54,SSE,165,12.0,22.0,25,0.00,,,0.00,86.0,meteohub,2013-06-15 00:27:00,
2013-06-14 19:32:00,85.1,47.3,29.55,SSE,161,14.0,22.0,27,0.00,,,0.00,72.0,meteohub,2013-06-15 00:32:00,
2013-06-14 19:37:00,84.7,48.9,29.54,SSE,161,12.0,22.0,29,0.00,,,0.00,74.0,meteohub,2013-06-15 00:37:00,
2013-06-14 19:42:00,84.6,50.5,29.54,South,173,12.0,26.0,31,0.00,,,0.00,74.0,meteohub,2013-06-15 00:42:00,
2013-06-14 19:47:00,84.4,51.3,29.55,SSE,165,12.0,26.0,32,0.00,,,0.00,77.0,meteohub,2013-06-15 00:47:00,
2013-06-14 19:52:00,84.4,52.2,29.55,South,180,12.0,19.0,33,0.00,,,0.00,86.0,meteohub,2013-06-15 00:52:00,
2013-06-14 19:57:00,84.6,52.3,29.55,SW,216,14.0,19.0,33,0.00,,,0.00,100.0,meteohub,2013-06-15 00:57:00,
2013-06-14 20:02:00,84.6,52.3,29.55,South,180,12.0,24.0,33,0.00,,,0.00,116.0,meteohub,2013-06-15 01:02:00,
2013-06-14 20:07:00,84.6,52.3,29.55,South,186,21.0,24.0,33,0.00,,,0.00,84.0,meteohub,2013-06-15 01:07:00,
2013-06-14 20:12:00,84.4,52.2,29.56,SSW,192,11.0,27.0,33,0.00,,,0.00,67.0,meteohub,2013-06-15 01:12:00,
2013-06-14 20:17:00,83.8,52.5,29.56,South,176,13.0,27.0,34,0.00,,,0.00,44.0,meteohub,2013-06-15 01:17:00,
2013-06-14 20:22:00,83.5,52.2,29.55,SSW,192,13.0,26.0,34,0.00,,,0.00,30.0,meteohub,2013-06-15 01:22:00,
2013-06-14 20:27:00,83.1,51.1,29.55,SSE,167,16.0,26.0,33,0.00,,,0.00,23.0,meteohub,2013-06-15 01:27:00,
2013-06-14 20:32:00,82.8,53.1,29.55,SSE,168,14.0,24.0,36,0.00,,,0.00,14.0,meteohub,2013-06-15 01:32:00,
2013-06-14 20:37:00,82.0,53.2,29.56,SSE,160,14.0,24.0,37,0.00,,,0.00,7.0,meteohub,2013-06-15 01:37:00,
2013-06-14 20:42:00,81.0,53.6,29.56,SSE,163,15.0,23.0,39,0.00,,,0.00,0.0,meteohub,2013-06-15 01:42:00,
2013-06-14 20:47:00,80.1,53.6,29.57,South,177,11.0,24.0,40,0.00,,,0.00,0.0,meteohub,2013-06-15 01:47:00,
2013-06-14 20:52:00,79.2,54.1,29.57,SSE,161,11.0,24.0,42,0.00,,,0.00,0.0,meteohub,2013-06-15 01:52:00,
2013-06-14 20:57:00,79.0,53.2,29.58,SSE,159,16.0,24.0,41,0.00,,,0.00,0.0,meteohub,2013-06-15 01:57:00,
2013-06-14 21:02:00,78.6,52.3,29.58,SSE,159,17.0,25.0,40,0.00,,,0.00,0.0,meteohub,2013-06-15 02:02:00,
2013-06-14 21:07:00,78.1,52.5,29.58,SSE,159,15.0,25.0,41,0.00,,,0.00,0.0,meteohub,2013-06-15 02:07:00,
2013-06-14 21:12:00,77.9,52.9,29.58,SSE,162,18.0,25.0,42,0.00,,,0.00,0.0,meteohub,2013-06-15 02:12:00,
2013-06-14 21:17:00,77.5,53.2,29.57,SSE,158,19.0,25.0,43,0.00,,,0.00,0.0,meteohub,2013-06-15 02:17:00,
2013-06-14 21:22:00,77.5,53.2,29.57,SSE,157,18.0,25.0,43,0.00,,,0.00,0.0,meteohub,2013-06-15 02:22:00,
2013-06-14 21:27:00,77.4,52.5,29.57,SSE,155,22.0,27.0,42,0.00,,,0.00,0.0,meteohub,2013-06-15 02:27:00,
2013-06-14 21:32:00,77.0,50.9,29.57,SSE,151,14.0,27.0,40,0.00,,,0.00,0.0,meteohub,2013-06-15 02:32:00,
2013-06-14 21:37:00,76.8,52.0,29.56,SSE,160,14.0,27.0,42,0.00,,,0.00,0.0,meteohub,2013-06-15 02:37:00,
2013-06-14 21:42:00,76.6,52.5,29.57,SSE,167,15.0,25.0,43,0.00,,,0.00,0.0,meteohub,2013-06-15 02:42:00,
2013-06-14 21:47:00,76.3,53.4,29.57,SSE,163,19.0,23.0,45,0.00,,,0.00,0.0,meteohub,2013-06-15 02:47:00,
2013-06-14 21:52:00,75.7,54.1,29.56,South,178,13.0,23.0,47,0.00,,,0.00,0.0,meteohub,2013-06-15 02:52:00,
2013-06-14 21:57:00,75.4,54.3,29.57,SSE,150,14.0,23.0,48,0.00,,,0.00,0.0,meteohub,2013-06-15 02:57:00,
2013-06-14 22:03:00,75.4,54.9,29.56,SSE,160,18.0,24.0,49,0.00,,,0.00,0.0,meteohub,2013-06-15 03:03:00,
2013-06-14 22:08:00,74.8,56.1,29.56,SSE,155,18.0,24.0,52,0.00,,,0.00,0.0,meteohub,2013-06-15 03:08:00,
2013-06-14 22:13:00,74.5,57.2,29.56,SSE,153,15.0,25.0,55,0.00,,,0.00,0.0,meteohub,2013-06-15 03:13:00,
2013-06-14 22:18:00,73.9,57.7,29.56,SSE,150,17.0,25.0,57,0.00,,,0.00,0.0,meteohub,2013-06-15 03:18:00,
2013-06-14 22:23:00,73.6,57.9,29.57,South,175,13.0,25.0,58,0.00,,,0.00,0.0,meteohub,2013-06-15 03:23:00,
2013-06-14 22:28:00,73.6,58.3,29.57,SSE,157,15.0,25.0,59,0.00,,,0.00,0.0,meteohub,2013-06-15 03:28:00,
2013-06-14 22:33:00,73.4,58.6,29.58,SSE,165,11.0,24.0,60,0.00,,,0.00,0.0,meteohub,2013-06-15 03:33:00,
2013-06-14 22:38:00,73.2,59.0,29.58,SSE,157,15.0,19.0,61,0.00,,,0.00,0.0,meteohub,2013-06-15 03:38:00,
2013-06-14 22:43:00,73.2,59.4,29.58,SSE,157,21.0,21.0,62,0.00,,,0.00,0.0,meteohub,2013-06-15 03:43:00,
2013-06-14 22:48:00,73.2,59.4,29.58,SSE,151,16.0,19.0,62,0.00,,,0.00,0.0,meteohub,2013-06-15 03:48:00,
2013-06-14 22:53:00,73.0,59.7,29.59,SSE,160,13.0,22.0,63,0.00,,,0.00,0.0,meteohub,2013-06-15 03:53:00,
2013-06-14 22:59:00,72.9,60.4,29.59,SSE,161,19.0,24.0,65,0.00,,,0.00,0.0,meteohub,2013-06-15 03:59:00,
2013-06-14 23:01:00,72.7,60.6,29.60,SSE,147,18.0,24.0,66,0.00,,,0.00,0.0,meteohub,2013-06-15 04:01:00,
2013-06-14 23:02:00,72.3,60.8,29.60,SE,142,19.0,24.0,67,0.00,,,0.00,0.0,meteohub,2013-06-15 04:02:00,
2013-06-14 23:07:00,71.8,61.0,29.60,SSE,155,23.0,25.0,69,0.00,,,0.00,0.0,meteohub,2013-06-15 04:07:00,
2013-06-14 23:13:00,71.2,61.3,29.60,SSE,149,21.0,28.0,71,0.00,,,0.00,0.0,meteohub,2013-06-15 04:13:00,
2013-06-14 23:18:00,70.9,61.3,29.58,SSE,149,22.0,28.0,72,0.00,,,0.00,0.0,meteohub,2013-06-15 04:18:00,
2013-06-14 23:23:00,70.3,61.7,29.57,SSE,155,17.0,30.0,74,0.00,,,0.00,0.0,meteohub,2013-06-15 04:23:00,
2013-06-14 23:28:00,69.6,61.7,29.58,South,178,19.0,35.0,76,0.00,,,0.00,0.0,meteohub,2013-06-15 04:28:00,
2013-06-14 23:33:00,69.4,61.9,29.58,South,173,11.0,35.0,77,0.00,,,0.00,0.0,meteohub,2013-06-15 04:33:00,
2013-06-14 23:38:00,69.1,61.5,29.58,SSE,153,18.0,31.0,77,0.00,,,0.00,0.0,meteohub,2013-06-15 04:38:00,
2013-06-14 23:43:00,68.7,61.9,29.58,SE,146,19.0,31.0,79,0.00,,,0.00,0.0,meteohub,2013-06-15 04:43:00,
2013-06-14 23:48:00,68.4,61.9,29.58,SSE,152,18.0,24.0,80,0.00,,,0.00,0.0,meteohub,2013-06-15 04:48:00,
2013-06-14 23:53:00,68.2,62.1,29.58,SE,145,18.0,24.0,81,0.00,,,0.00,0.0,meteohub,2013-06-15 04:53:00,
2013-06-14 23:58:00,68.0,62.2,29.58,South,172,16.0,24.0,82,0.00,,,0.00,0.0,meteohub,2013-06-15 04:58:00,